owner,sensor,date,latitude,longitude,vertical_datum,direction_of_sea_water_velocity,sea_water_speed,upward_sea_water_velocity,qcFlag 
TABS,ioos:station:wmo:42047:1,2008-07-06T17:00:00Z,27.8966,-93.5973,2.0,290.8852008,57.92578787,-99999.0,'11111222,11111222,99999999' 
TABS,ioos:station:wmo:42047:1,2008-07-06T17:30:00Z,27.8966,-93.5973,2.0,284.6571378,28.21824941,-99999.0,'11111222,11111222,99999999' 
TABS,ioos:station:wmo:42047:1,2008-07-06T18:00:00Z,27.8966,-93.5973,2.0,291.7058069,26.60646538,-99999.0,'11111222,11111222,99999999' 
TABS,ioos:station:wmo:42047:1,2008-07-06T18:30:00Z,27.8966,-93.5973,2.0,293.3833399,25.29762835,-99999.0,'11111222,11111222,99999999' 
TABS,ioos:station:wmo:42047:1,2008-07-06T19:00:00Z,27.8966,-93.5973,2.0,304.4403742,25.85124368,-99999.0,'11111222,11111222,99999999' 
TABS,ioos:station:wmo:42047:1,2008-07-06T19:30:00Z,27.8966,-93.5973,2.0,307.0060038,25.32007109,-99999.0,'11111222,11111222,99999999' 
TABS,ioos:station:wmo:42047:1,2008-07-06T20:00:00Z,27.8966,-93.5973,2.0,320.5582374,24.82300949,-99999.0,'11111222,11111222,99999999' 
TABS,ioos:station:wmo:42047:1,2008-07-06T20:30:00Z,27.8966,-93.5973,2.0,324.696958,24.72724206,-99999.0,'11111222,11111222,99999999' 
TABS,ioos:station:wmo:42047:1,2008-07-06T21:00:00Z,27.8966,-93.5973,2.0,346.4461856,34.00712425,-99999.0,'11111222,11111222,99999999' 
TABS,ioos:station:wmo:42047:1,2008-07-06T21:30:00Z,27.8966,-93.5973,2.0,356.4939548,34.17396963,-99999.0,'11111222,11111222,99999999' 
TABS,ioos:station:wmo:42047:1,2008-07-06T22:00:00Z,27.8966,-93.5973,2.0,352.1912363,30.02846816,-99999.0,'11111222,11111222,99999999' 
TABS,ioos:station:wmo:42047:1,2008-07-06T22:30:00Z,27.8966,-93.5973,2.0,356.3949298,25.92130012,-99999.0,'11111222,11111222,99999999' 
TABS,ioos:station:wmo:42047:1,2008-07-06T23:00:00Z,27.8966,-93.5973,2.0,357.9593023,22.74442789,-99999.0,'11111222,11111222,99999999' 
TABS,ioos:station:wmo:42047:1,2008-07-06T23:30:00Z,27.8966,-93.5973,2.0,354.4311074,22.56651723,-99999.0,'11111222,11111222,99999999' 
TABS,ioos:station:wmo:42047:1,2008-07-07T00:00:00Z,27.8966,-93.5973,2.0,356.1901328,19.11224215,-99999.0,'11111222,11111222,99999999' 
TABS,ioos:station:wmo:42047:1,2008-07-07T00:30:00Z,27.8966,-93.5973,2.0,0.490370373,21.04076995,-99999.0,'11111222,11111222,99999999' 
TABS,ioos:station:wmo:42047:1,2008-07-07T01:00:00Z,27.8966,-93.5973,2.0,4.017123649,25.55277284,-99999.0,'11111222,11111222,99999999' 
TABS,ioos:station:wmo:42047:1,2008-07-07T01:30:00Z,27.8966,-93.5973,2.0,9.336176373,15.65739761,-99999.0,'11111222,11111222,99999999' 
TABS,ioos:station:wmo:42047:1,2008-07-07T02:00:00Z,27.8966,-93.5973,2.0,19.48304234,22.99676716,-99999.0,'11111222,11111222,99999999' 
TABS,ioos:station:wmo:42047:1,2008-07-07T02:30:00Z,27.8966,-93.5973,2.0,19.17451272,25.2402397,-99999.0,'11111222,11111222,99999999' 
TABS,ioos:station:wmo:42047:1,2008-07-07T03:00:00Z,27.8966,-93.5973,2.0,16.8023405,24.52709726,-99999.0,'11111222,11111222,99999999' 
TABS,ioos:station:wmo:42047:1,2008-07-07T03:30:00Z,27.8966,-93.5973,2.0,26.15166191,26.02403697,-99999.0,'11111222,11111222,99999999' 
TABS,ioos:station:wmo:42047:1,2008-07-07T04:00:00Z,27.8966,-93.5973,2.0,29.87213379,29.07257299,-99999.0,'11111222,11111222,99999999' 
TABS,ioos:station:wmo:42047:1,2008-07-07T04:30:00Z,27.8966,-93.5973,2.0,50.95419874,26.65321932,-99999.0,'11111222,11111222,99999999' 
TABS,ioos:station:wmo:42047:1,2008-07-07T05:00:00Z,27.8966,-93.5973,2.0,50.67588023,23.16524984,-99999.0,'11111222,11111222,99999999' 
TABS,ioos:station:wmo:42047:1,2008-07-07T05:30:00Z,27.8966,-93.5973,2.0,44.03641766,20.60093444,-99999.0,'11111222,11111222,99999999' 
TABS,ioos:station:wmo:42047:1,2008-07-07T06:00:00Z,27.8966,-93.5973,2.0,38.55123978,21.40521432,-99999.0,'11111222,11111222,99999999' 
TABS,ioos:station:wmo:42047:1,2008-07-07T06:30:00Z,27.8966,-93.5973,2.0,35.43437107,19.31806409,-99999.0,'11111222,11111222,99999999' 
TABS,ioos:station:wmo:42047:1,2008-07-07T07:00:00Z,27.8966,-93.5973,2.0,30.54302884,17.27723357,-99999.0,'11111222,11111222,99999999' 
TABS,ioos:station:wmo:42047:1,2008-07-07T07:30:00Z,27.8966,-93.5973,2.0,25.26399831,15.55810078,-99999.0,'11111222,11111222,99999999' 
TABS,ioos:station:wmo:42047:1,2008-07-07T08:00:00Z,27.8966,-93.5973,2.0,28.44307257,11.19082213,-99999.0,'11111222,11111222,99999999' 
TABS,ioos:station:wmo:42047:1,2008-07-07T08:30:00Z,27.8966,-93.5973,2.0,50.89581372,10.67011246,-99999.0,'11111222,11111222,99999999' 
TABS,ioos:station:wmo:42047:1,2008-07-07T09:00:00Z,27.8966,-93.5973,2.0,36.77878686,6.280007962,-99999.0,'11133222,11111222,99999999' 
TABS,ioos:station:wmo:42047:1,2008-07-07T09:30:00Z,27.8966,-93.5973,2.0,53.70587905,4.578231099,-99999.0,'11133222,11111222,99999999' 
TABS,ioos:station:wmo:42047:1,2008-07-07T10:00:00Z,27.8966,-93.5973,2.0,357.1378119,3.003747659,-99999.0,'11133222,11111222,99999999' 
TABS,ioos:station:wmo:42047:1,2008-07-07T10:30:00Z,27.8966,-93.5973,2.0,79.09236371,3.91065212,-99999.0,'11133222,11111222,99999999' 
TABS,ioos:station:wmo:42047:1,2008-07-07T11:00:00Z,27.8966,-93.5973,2.0,52.80252097,2.448040032,-99999.0,'11133222,11111222,99999999' 
TABS,ioos:station:wmo:42047:1,2008-07-07T11:30:00Z,27.8966,-93.5973,2.0,74.89893715,4.567734668,-99999.0,'11133222,11111222,99999999' 
TABS,ioos:station:wmo:42047:1,2008-07-07T12:00:00Z,27.8966,-93.5973,2.0,300.203588,2.325725693,-99999.0,'11133222,11111222,99999999' 
TABS,ioos:station:wmo:42047:1,2008-07-07T12:30:00Z,27.8966,-93.5973,2.0,263.2106204,1.268897159,-99999.0,'11133222,11111222,99999999' 
TABS,ioos:station:wmo:42047:1,2008-07-07T13:00:00Z,27.8966,-93.5973,2.0,258.3659723,1.388524397,-99999.0,'11133222,11111222,99999999' 
TABS,ioos:station:wmo:42047:1,2008-07-07T13:30:00Z,27.8966,-93.5973,2.0,283.159319,10.45451099,-99999.0,'11111222,11111222,99999999' 
TABS,ioos:station:wmo:42047:1,2008-07-07T14:00:00Z,27.8966,-93.5973,2.0,268.3902916,11.39449428,-99999.0,'11111222,11111222,99999999' 
TABS,ioos:station:wmo:42047:1,2008-07-07T14:30:00Z,27.8966,-93.5973,2.0,288.723242,12.58602399,-99999.0,'11111222,11111222,99999999' 
TABS,ioos:station:wmo:42047:1,2008-07-07T15:00:00Z,27.8966,-93.5973,2.0,303.5636963,7.524526563,-99999.0,'11133222,11111222,99999999' 
TABS,ioos:station:wmo:42047:1,2008-07-07T15:30:00Z,27.8966,-93.5973,2.0,311.1230364,11.08452074,-99999.0,'11111222,11111222,99999999' 
TABS,ioos:station:wmo:42047:1,2008-07-07T16:00:00Z,27.8966,-93.5973,2.0,334.9752971,17.13894396,-99999.0,'11111222,11111222,99999999' 
TABS,ioos:station:wmo:42047:1,2008-07-07T16:30:00Z,27.8966,-93.5973,2.0,347.2161643,22.64125659,-99999.0,'11111222,11111222,99999999' 
TABS,ioos:station:wmo:42047:1,2008-07-07T17:00:00Z,27.8966,-93.5973,2.0,353.1554807,23.07445774,-99999.0,'11111222,11111222,99999999' 
TABS,ioos:station:wmo:42047:1,2008-07-07T17:30:00Z,27.8966,-93.5973,2.0,346.2791895,26.01233938,-99999.0,'11111222,11111222,99999999' 
TABS,ioos:station:wmo:42047:1,2008-07-07T18:00:00Z,27.8966,-93.5973,2.0,345.4022958,21.02884923,-99999.0,'11111222,11111222,99999999' 
TABS,ioos:station:wmo:42047:1,2008-07-07T18:30:00Z,27.8966,-93.5973,2.0,330.1691751,19.78108187,-99999.0,'11111222,11111222,99999999' 
TABS,ioos:station:wmo:42047:1,2008-07-07T19:00:00Z,27.8966,-93.5973,2.0,335.7191717,21.54597874,-99999.0,'11111222,11111222,99999999' 
TABS,ioos:station:wmo:42047:1,2008-07-07T19:30:00Z,27.8966,-93.5973,2.0,341.1526732,23.7113728,-99999.0,'11111222,11111222,99999999' 
TABS,ioos:station:wmo:42047:1,2008-07-07T20:00:00Z,27.8966,-93.5973,2.0,345.6871295,24.59339952,-99999.0,'11111222,11111222,99999999' 
TABS,ioos:station:wmo:42047:1,2008-07-07T20:30:00Z,27.8966,-93.5973,2.0,345.9698386,23.80002101,-99999.0,'11111222,11111222,99999999' 
TABS,ioos:station:wmo:42047:1,2008-07-07T21:00:00Z,27.8966,-93.5973,2.0,344.44924,23.94663442,-99999.0,'11111222,11111222,99999999' 
TABS,ioos:station:wmo:42047:1,2008-07-07T21:30:00Z,27.8966,-93.5973,2.0,344.3282375,24.46968941,-99999.0,'11111222,11111222,99999999' 
TABS,ioos:station:wmo:42047:1,2008-07-07T22:00:00Z,27.8966,-93.5973,2.0,341.9509284,24.43231057,-99999.0,'11111222,11111222,99999999' 
TABS,ioos:station:wmo:42047:1,2008-07-07T22:30:00Z,27.8966,-93.5973,2.0,358.047706,32.57891496,-99999.0,'11111222,11111222,99999999' 
TABS,ioos:station:wmo:42047:1,2008-07-07T23:00:00Z,27.8966,-93.5973,2.0,358.6099102,28.43837196,-99999.0,'11111222,11111222,99999999' 
TABS,ioos:station:wmo:42047:1,2008-07-07T23:30:00Z,27.8966,-93.5973,2.0,356.9263286,27.59971014,-99999.0,'11111222,11111222,99999999' 
TABS,ioos:station:wmo:42047:1,2008-07-08T00:00:00Z,27.8966,-93.5973,2.0,6.971021581,29.49804739,-99999.0,'11111222,11111222,99999999' 
TABS,ioos:station:wmo:42047:1,2008-07-08T00:30:00Z,27.8966,-93.5973,2.0,5.796694177,24.55555538,-99999.0,'11111222,11111222,99999999' 
TABS,ioos:station:wmo:42047:1,2008-07-08T01:00:00Z,27.8966,-93.5973,2.0,12.71696261,23.80390724,-99999.0,'11111222,11111222,99999999' 
TABS,ioos:station:wmo:42047:1,2008-07-08T01:30:00Z,27.8966,-93.5973,2.0,358.0723028,26.45497496,-99999.0,'11111222,11111222,99999999' 
TABS,ioos:station:wmo:42047:1,2008-07-08T02:00:00Z,27.8966,-93.5973,2.0,11.10989684,24.13223777,-99999.0,'11111222,11111222,99999999' 
TABS,ioos:station:wmo:42047:1,2008-07-08T02:30:00Z,27.8966,-93.5973,2.0,3.193463622,26.03041682,-99999.0,'11111222,11111222,99999999' 
TABS,ioos:station:wmo:42047:1,2008-07-08T03:00:00Z,27.8966,-93.5973,2.0,14.40618458,22.54900663,-99999.0,'11111222,11111222,99999999' 
TABS,ioos:station:wmo:42047:1,2008-07-08T03:30:00Z,27.8966,-93.5973,2.0,1.574154233,22.20837905,-99999.0,'11111222,11111222,99999999' 
TABS,ioos:station:wmo:42047:1,2008-07-08T04:00:00Z,27.8966,-93.5973,2.0,7.537331333,21.72772653,-99999.0,'11111222,11111222,99999999' 
TABS,ioos:station:wmo:42047:1,2008-07-08T04:30:00Z,27.8966,-93.5973,2.0,5.381907139,25.48232721,-99999.0,'11111222,11111222,99999999' 
TABS,ioos:station:wmo:42047:1,2008-07-08T05:00:00Z,27.8966,-93.5973,2.0,5.88770393,23.20238781,-99999.0,'11111222,11111222,99999999' 
TABS,ioos:station:wmo:42047:1,2008-07-08T05:30:00Z,27.8966,-93.5973,2.0,0.9371121,28.74384282,-99999.0,'11111222,11111222,99999999' 
TABS,ioos:station:wmo:42047:1,2008-07-08T06:00:00Z,27.8966,-93.5973,2.0,357.7563841,29.37252117,-99999.0,'11111222,11111222,99999999' 
TABS,ioos:station:wmo:42047:1,2008-07-08T06:30:00Z,27.8966,-93.5973,2.0,356.9289722,25.75699517,-99999.0,'11111222,11111222,99999999' 
TABS,ioos:station:wmo:42047:1,2008-07-08T07:00:00Z,27.8966,-93.5973,2.0,353.2691,22.01172415,-99999.0,'11111222,11111222,99999999' 
TABS,ioos:station:wmo:42047:1,2008-07-08T07:30:00Z,27.8966,-93.5973,2.0,2.878852441,22.89889517,-99999.0,'11111222,11111222,99999999' 
TABS,ioos:station:wmo:42047:1,2008-07-08T08:00:00Z,27.8966,-93.5973,2.0,3.664758682,22.68638579,-99999.0,'11111222,11111222,99999999' 
TABS,ioos:station:wmo:42047:1,2008-07-08T08:30:00Z,27.8966,-93.5973,2.0,4.234819596,23.8350687,-99999.0,'11111222,11111222,99999999' 
TABS,ioos:station:wmo:42047:1,2008-07-08T09:00:00Z,27.8966,-93.5973,2.0,3.558867778,18.20510368,-99999.0,'11111222,11111222,99999999' 
TABS,ioos:station:wmo:42047:1,2008-07-08T09:30:00Z,27.8966,-93.5973,2.0,7.837946335,16.35276429,-99999.0,'11111222,11111222,99999999' 
TABS,ioos:station:wmo:42047:1,2008-07-08T10:00:00Z,27.8966,-93.5973,2.0,359.3600623,17.90111728,-99999.0,'11111222,11144222,99999999' 
TABS,ioos:station:wmo:42047:1,2008-07-08T10:30:00Z,27.8966,-93.5973,2.0,8.461478815,15.90309718,-99999.0,'11111222,11111222,99999999' 
TABS,ioos:station:wmo:42047:1,2008-07-08T11:00:00Z,27.8966,-93.5973,2.0,9.049342139,15.95862463,-99999.0,'11111222,11111222,99999999' 
TABS,ioos:station:wmo:42047:1,2008-07-08T11:30:00Z,27.8966,-93.5973,2.0,1.538470625,15.64563837,-99999.0,'11111222,11111222,99999999' 
TABS,ioos:station:wmo:42047:1,2008-07-08T12:00:00Z,27.8966,-93.5973,2.0,13.77578211,12.26272808,-99999.0,'11111222,11111222,99999999' 
TABS,ioos:station:wmo:42047:1,2008-07-08T12:30:00Z,27.8966,-93.5973,2.0,16.03952928,11.72648711,-99999.0,'11111222,11111222,99999999' 
TABS,ioos:station:wmo:42047:1,2008-07-08T13:00:00Z,27.8966,-93.5973,2.0,0.000210459,8.05,-99999.0,'11133222,11111222,99999999' 
TABS,ioos:station:wmo:42047:1,2008-07-08T13:30:00Z,27.8966,-93.5973,2.0,6.60503051,11.47616661,-99999.0,'11111222,11111222,99999999' 
TABS,ioos:station:wmo:42047:1,2008-07-08T14:00:00Z,27.8966,-93.5973,2.0,14.96972626,1.935691091,-99999.0,'11133222,11111222,99999999' 
TABS,ioos:station:wmo:42047:1,2008-07-08T14:30:00Z,27.8966,-93.5973,2.0,25.67264239,4.593440976,-99999.0,'11133222,11111222,99999999' 
TABS,ioos:station:wmo:42047:1,2008-07-08T15:00:00Z,27.8966,-93.5973,2.0,59.16069118,4.740232062,-99999.0,'11133222,11111222,99999999' 
TABS,ioos:station:wmo:42047:1,2008-07-08T15:30:00Z,27.8966,-93.5973,2.0,54.10362224,4.826696593,-99999.0,'11133222,11111222,99999999' 
TABS,ioos:station:wmo:42047:1,2008-07-08T16:00:00Z,27.8966,-93.5973,2.0,59.8237533,4.118069936,-99999.0,'11133222,11111222,99999999' 
TABS,ioos:station:wmo:42047:1,2008-07-08T16:30:00Z,27.8966,-93.5973,2.0,302.602349,3.359315406,-99999.0,'11133222,11111222,99999999' 
TABS,ioos:station:wmo:42047:1,2008-07-08T17:00:00Z,27.8966,-93.5973,2.0,340.9492463,2.941088234,-99999.0,'11133222,11111222,99999999' 
TABS,ioos:station:wmo:42047:1,2008-07-08T17:30:00Z,27.8966,-93.5973,2.0,305.7358134,3.030594001,-99999.0,'11133222,11111222,99999999' 
TABS,ioos:station:wmo:42047:1,2008-07-08T18:00:00Z,27.8966,-93.5973,2.0,337.3471141,6.620770348,-99999.0,'11133222,11111222,99999999' 
TABS,ioos:station:wmo:42047:1,2008-07-08T18:30:00Z,27.8966,-93.5973,2.0,324.2464068,5.236993412,-99999.0,'11133222,11111222,99999999' 
TABS,ioos:station:wmo:42047:1,2008-07-08T19:00:00Z,27.8966,-93.5973,2.0,327.4554494,5.966992542,-99999.0,'11133222,11111222,99999999' 
TABS,ioos:station:wmo:42047:1,2008-07-08T19:30:00Z,27.8966,-93.5973,2.0,325.7056167,5.519574259,-99999.0,'11133222,11111222,99999999' 
TABS,ioos:station:wmo:42047:1,2008-07-08T20:00:00Z,27.8966,-93.5973,2.0,346.5566263,7.269181522,-99999.0,'11133222,11111222,99999999' 
TABS,ioos:station:wmo:42047:1,2008-07-08T20:30:00Z,27.8966,-93.5973,2.0,336.1486245,9.446798399,-99999.0,'11133222,11111222,99999999' 
TABS,ioos:station:wmo:42047:1,2008-07-08T21:00:00Z,27.8966,-93.5973,2.0,0.000210459,7.64,-99999.0,'11133222,11111222,99999999' 
TABS,ioos:station:wmo:42047:1,2008-07-08T21:30:00Z,27.8966,-93.5973,2.0,14.51418807,11.05273269,-99999.0,'11111222,11111222,99999999' 
TABS,ioos:station:wmo:42047:1,2008-07-08T22:00:00Z,27.8966,-93.5973,2.0,346.3671287,5.515396631,-99999.0,'11133222,11111222,99999999' 
TABS,ioos:station:wmo:42047:1,2008-07-08T22:30:00Z,27.8966,-93.5973,2.0,11.50761879,11.37872576,-99999.0,'11111222,11111222,99999999' 
TABS,ioos:station:wmo:42047:1,2008-07-08T23:00:00Z,27.8966,-93.5973,2.0,6.81541394,8.258353347,-99999.0,'11133222,11111222,99999999' 
TABS,ioos:station:wmo:42047:1,2008-07-08T23:30:00Z,27.8966,-93.5973,2.0,356.6559174,10.62809955,-99999.0,'11111222,11111222,99999999' 
TABS,ioos:station:wmo:42047:1,2008-07-09T00:00:00Z,27.8966,-93.5973,2.0,336.4060927,9.31903965,-99999.0,'11133222,11111222,99999999' 
TABS,ioos:station:wmo:42047:1,2008-07-09T00:30:00Z,27.8966,-93.5973,2.0,356.5850046,6.21103051,-99999.0,'11133222,11111222,99999999' 
TABS,ioos:station:wmo:42047:1,2008-07-09T01:00:00Z,27.8966,-93.5973,2.0,318.9831911,7.024393212,-99999.0,'11133222,11111222,99999999' 
TABS,ioos:station:wmo:42047:1,2008-07-09T01:30:00Z,27.8966,-93.5973,2.0,284.9377864,6.168443888,-99999.0,'11133222,11111222,99999999' 
TABS,ioos:station:wmo:42047:1,2008-07-09T02:00:00Z,27.8966,-93.5973,2.0,303.7143127,6.64808243,-99999.0,'11133222,11111222,99999999' 
TABS,ioos:station:wmo:42047:1,2008-07-09T02:30:00Z,27.8966,-93.5973,2.0,284.3512577,8.39185915,-99999.0,'11133222,11111222,99999999' 
TABS,ioos:station:wmo:42047:1,2008-07-09T03:00:00Z,27.8966,-93.5973,2.0,311.2190339,9.864400641,-99999.0,'11133222,11111222,99999999' 
TABS,ioos:station:wmo:42047:1,2008-07-09T03:30:00Z,27.8966,-93.5973,2.0,286.1597203,7.725211971,-99999.0,'11133222,11111222,99999999' 
TABS,ioos:station:wmo:42047:1,2008-07-09T04:00:00Z,27.8966,-93.5973,2.0,276.6682249,6.373107562,-99999.0,'11133222,11111222,99999999' 
TABS,ioos:station:wmo:42047:1,2008-07-09T04:30:00Z,27.8966,-93.5973,2.0,260.8849601,6.502099661,-99999.0,'11133222,11111222,99999999' 
TABS,ioos:station:wmo:42047:1,2008-07-09T05:00:00Z,27.8966,-93.5973,2.0,277.7655688,8.215333225,-99999.0,'11133222,11111222,99999999' 
TABS,ioos:station:wmo:42047:1,2008-07-09T05:30:00Z,27.8966,-93.5973,2.0,289.1934478,11.71093933,-99999.0,'11111222,11111222,99999999' 
TABS,ioos:station:wmo:42047:1,2008-07-09T06:00:00Z,27.8966,-93.5973,2.0,303.4148606,16.72440432,-99999.0,'11111222,11111222,99999999' 
TABS,ioos:station:wmo:42047:1,2008-07-09T06:30:00Z,27.8966,-93.5973,2.0,308.9955069,15.20846146,-99999.0,'11111222,11111222,99999999' 
TABS,ioos:station:wmo:42047:1,2008-07-09T07:00:00Z,27.8966,-93.5973,2.0,318.4291203,16.78848415,-99999.0,'11111222,11111222,99999999' 
TABS,ioos:station:wmo:42047:1,2008-07-09T07:30:00Z,27.8966,-93.5973,2.0,325.2647321,17.93644335,-99999.0,'11111222,11111222,99999999' 
TABS,ioos:station:wmo:42047:1,2008-07-09T08:00:00Z,27.8966,-93.5973,2.0,332.3008024,17.61919692,-99999.0,'11111222,11111222,99999999' 
TABS,ioos:station:wmo:42047:1,2008-07-09T08:30:00Z,27.8966,-93.5973,2.0,337.7679732,17.28501085,-99999.0,'11111222,11111222,99999999' 
TABS,ioos:station:wmo:42047:1,2008-07-09T09:00:00Z,27.8966,-93.5973,2.0,335.9063731,18.15139113,-99999.0,'11111222,11111222,99999999' 
TABS,ioos:station:wmo:42047:1,2008-07-09T09:30:00Z,27.8966,-93.5973,2.0,338.1125292,23.41806568,-99999.0,'11111222,11111222,99999999' 
TABS,ioos:station:wmo:42047:1,2008-07-09T10:00:00Z,27.8966,-93.5973,2.0,340.6374575,23.04337649,-99999.0,'11111222,11111222,99999999' 
TABS,ioos:station:wmo:42047:1,2008-07-09T10:30:00Z,27.8966,-93.5973,2.0,344.2015263,24.68240061,-99999.0,'11111222,11111222,99999999' 
TABS,ioos:station:wmo:42047:1,2008-07-09T11:00:00Z,27.8966,-93.5973,2.0,341.1926183,23.82194157,-99999.0,'11111222,11111222,99999999' 
TABS,ioos:station:wmo:42047:1,2008-07-09T11:30:00Z,27.8966,-93.5973,2.0,345.3608439,22.11804919,-99999.0,'11111222,11111222,99999999' 
TABS,ioos:station:wmo:42047:1,2008-07-09T12:00:00Z,27.8966,-93.5973,2.0,348.2580505,16.11728265,-99999.0,'11111222,11111222,99999999' 
TABS,ioos:station:wmo:42047:1,2008-07-09T12:30:00Z,27.8966,-93.5973,2.0,344.5980902,13.32869461,-99999.0,'11111222,11111222,99999999' 
TABS,ioos:station:wmo:42047:1,2008-07-09T13:00:00Z,27.8966,-93.5973,2.0,334.3292291,10.31847372,-99999.0,'11111222,11111222,99999999' 
TABS,ioos:station:wmo:42047:1,2008-07-09T13:30:00Z,27.8966,-93.5973,2.0,337.5620279,10.19158967,-99999.0,'11111222,11111222,99999999' 
TABS,ioos:station:wmo:42047:1,2008-07-09T14:00:00Z,27.8966,-93.5973,2.0,327.3946703,8.499529399,-99999.0,'11133222,11111222,99999999' 
TABS,ioos:station:wmo:42047:1,2008-07-09T14:30:00Z,27.8966,-93.5973,2.0,342.6551649,7.647770917,-99999.0,'11133222,11111222,99999999' 
TABS,ioos:station:wmo:42047:1,2008-07-09T15:00:00Z,27.8966,-93.5973,2.0,344.9774282,6.057012465,-99999.0,'11133222,11111222,99999999' 
TABS,ioos:station:wmo:42047:1,2008-07-09T15:30:00Z,27.8966,-93.5973,2.0,330.1543483,6.32950235,-99999.0,'11133222,11111222,99999999' 
TABS,ioos:station:wmo:42047:1,2008-07-09T16:00:00Z,27.8966,-93.5973,2.0,305.6971066,2.93061427,-99999.0,'11133222,11111222,99999999' 
TABS,ioos:station:wmo:42047:1,2008-07-09T16:30:00Z,27.8966,-93.5973,2.0,275.4054515,6.157377689,-99999.0,'11133222,11111222,99999999' 
TABS,ioos:station:wmo:42047:1,2008-07-09T17:00:00Z,27.8966,-93.5973,2.0,309.1022662,6.881220822,-99999.0,'11133222,11111222,99999999' 
TABS,ioos:station:wmo:42047:1,2008-07-09T17:30:00Z,27.8966,-93.5973,2.0,299.4340343,6.165857605,-99999.0,'11133222,11111222,99999999' 
TABS,ioos:station:wmo:42047:1,2008-07-09T18:00:00Z,27.8966,-93.5973,2.0,298.0376375,7.658824975,-99999.0,'11133222,11111222,99999999' 
TABS,ioos:station:wmo:42047:1,2008-07-09T18:30:00Z,27.8966,-93.5973,2.0,305.7967193,4.376768214,-99999.0,'11133222,11111222,99999999' 
TABS,ioos:station:wmo:42047:1,2008-07-09T19:00:00Z,27.8966,-93.5973,2.0,19.96989592,3.660068305,-99999.0,'11133222,11111222,99999999' 
TABS,ioos:station:wmo:42047:1,2008-07-09T19:30:00Z,27.8966,-93.5973,2.0,352.9929487,6.639593361,-99999.0,'11133222,11111222,99999999' 
TABS,ioos:station:wmo:42047:1,2008-07-09T20:00:00Z,27.8966,-93.5973,2.0,14.21320439,7.860617024,-99999.0,'11133222,11111222,99999999' 
TABS,ioos:station:wmo:42047:1,2008-07-09T20:30:00Z,27.8966,-93.5973,2.0,349.8398171,9.58024008,-99999.0,'11133222,11111222,99999999' 
TABS,ioos:station:wmo:42047:1,2008-07-09T21:00:00Z,27.8966,-93.5973,2.0,336.5016997,10.53354641,-99999.0,'11111222,11111222,99999999' 
TABS,ioos:station:wmo:42047:1,2008-07-09T21:30:00Z,27.8966,-93.5973,2.0,5.953045004,13.88487306,-99999.0,'11111222,11111222,99999999' 
TABS,ioos:station:wmo:42047:1,2008-07-09T22:00:00Z,27.8966,-93.5973,2.0,357.7897532,14.00041785,-99999.0,'11111222,11111222,99999999' 
TABS,ioos:station:wmo:42047:1,2008-07-09T22:30:00Z,27.8966,-93.5973,2.0,5.835715139,11.40912354,-99999.0,'11111222,11111222,99999999' 
TABS,ioos:station:wmo:42047:1,2008-07-09T23:00:00Z,27.8966,-93.5973,2.0,8.558832124,8.130541187,-99999.0,'11133222,11111222,99999999' 
TABS,ioos:station:wmo:42047:1,2008-07-09T23:30:00Z,27.8966,-93.5973,2.0,358.9228751,9.04159831,-99999.0,'11133222,11111222,99999999' 
TABS,ioos:station:wmo:42047:1,2008-07-10T00:00:00Z,27.8966,-93.5973,2.0,344.5615162,5.747390712,-99999.0,'11133222,11111222,99999999' 
TABS,ioos:station:wmo:42047:1,2008-07-10T00:30:00Z,27.8966,-93.5973,2.0,2.885967954,7.349319696,-99999.0,'11133222,11111222,99999999' 
TABS,ioos:station:wmo:42047:1,2008-07-10T01:00:00Z,27.8966,-93.5973,2.0,316.7360162,3.73523761,-99999.0,'11133222,11111222,99999999' 
TABS,ioos:station:wmo:42047:1,2008-07-10T01:30:00Z,27.8966,-93.5973,2.0,321.9789667,6.867386694,-99999.0,'11133222,11111222,99999999' 
TABS,ioos:station:wmo:42047:1,2008-07-10T02:00:00Z,27.8966,-93.5973,2.0,318.0473981,11.1739429,-99999.0,'11111222,11111222,99999999' 
TABS,ioos:station:wmo:42047:1,2008-07-10T02:30:00Z,27.8966,-93.5973,2.0,309.6156602,6.555524388,-99999.0,'11133222,11111222,99999999' 
TABS,ioos:station:wmo:42047:1,2008-07-10T03:00:00Z,27.8966,-93.5973,2.0,290.866939,8.422404645,-99999.0,'11133222,11111222,99999999' 
TABS,ioos:station:wmo:42047:1,2008-07-10T03:30:00Z,27.8966,-93.5973,2.0,299.8880252,9.953818363,-99999.0,'11133222,11111222,99999999' 
TABS,ioos:station:wmo:42047:1,2008-07-10T04:00:00Z,27.8966,-93.5973,2.0,302.0057293,7.83020434,-99999.0,'11133222,11111222,99999999' 
TABS,ioos:station:wmo:42047:1,2008-07-10T04:30:00Z,27.8966,-93.5973,2.0,300.7651326,11.35841978,-99999.0,'11111222,11111222,99999999' 
TABS,ioos:station:wmo:42047:1,2008-07-10T05:00:00Z,27.8966,-93.5973,2.0,317.1723749,7.649320231,-99999.0,'11133222,11111222,99999999' 
TABS,ioos:station:wmo:42047:1,2008-07-10T05:30:00Z,27.8966,-93.5973,2.0,314.4055726,14.30554088,-99999.0,'11111222,11111222,99999999' 
TABS,ioos:station:wmo:42047:1,2008-07-10T06:00:00Z,27.8966,-93.5973,2.0,314.2890959,15.38075746,-99999.0,'11111222,11111222,99999999' 
TABS,ioos:station:wmo:42047:1,2008-07-10T06:30:00Z,27.8966,-93.5973,2.0,320.9265326,13.8342329,-99999.0,'11111222,11111222,99999999' 
TABS,ioos:station:wmo:42047:1,2008-07-10T07:00:00Z,27.8966,-93.5973,2.0,324.314025,12.10258237,-99999.0,'11111222,11111222,99999999' 
TABS,ioos:station:wmo:42047:1,2008-07-10T07:30:00Z,27.8966,-93.5973,2.0,317.7849662,8.587345341,-99999.0,'11133222,11111222,99999999' 
TABS,ioos:station:wmo:42047:1,2008-07-10T08:00:00Z,27.8966,-93.5973,2.0,320.8419209,8.614870864,-99999.0,'11133222,11111222,99999999' 
TABS,ioos:station:wmo:42047:1,2008-07-10T08:30:00Z,27.8966,-93.5973,2.0,349.7066935,9.065914184,-99999.0,'11133222,11111222,99999999' 
TABS,ioos:station:wmo:42047:1,2008-07-10T09:00:00Z,27.8966,-93.5973,2.0,344.1810535,9.97789557,-99999.0,'11133222,11111222,99999999' 